Location: Unspecified
(45.4615°N, 74.0512°W)
Time: 22:53:53
(UTC-04:00)

Cosmos 2058 - Visible Passes

Search period start: 25 September 2018 00:00
Search period end: 05 October 2018 00:00
Orbit: 563 x 585 km, 82.5° (Epoch: 24 September)

Date Brightness Start Highest point End Pass type
(mag) Time Alt. Az. Time Alt. Az. Time Alt. Az.
30 Sep 5.8 21:40:27 10° N 21:40:32 11° N 21:40:32 11° N visible
01 Oct 5.8 21:43:30 10° N 21:43:42 11° N 21:43:42 11° N visible
02 Oct 5.8 21:46:36 10° N 21:46:53 12° N 21:46:53 12° N visible
03 Oct 5.8 21:49:44 10° NNW 21:50:05 12° NNW 21:50:05 12° NNW visible
04 Oct 5.9 21:52:55 10° NNW 21:53:18 12° NNW 21:53:18 12° NNW visible
